Weather History for Ashland, WI

Change the Weather History Date:

Monday, June 17, 2013

  Actual Average Record
Temperature  
Mean Temperature 46 °F -  
Max Temperature 57 °F 74 °F 90 °F (1949)
Min Temperature 37 °F 47 °F 32 °F (1972)
Degree Days  
Heating Degree Days 19    
Moisture  
Dew Point 47 °F    
Average Humidity 91    
Maximum Humidity 100    
Minimum Humidity 72    
Precipitation  
Precipitation 0.00 in - - ()
Sea Level Pressure  
Sea Level Pressure 29.99 in    
Wind  
Wind Speed 7 mph (NE)    
Max Wind Speed 14 mph    
Max Gust Speed 18 mph    
Visibility 7 miles    
Events Fog    
Averages and records for this station are not official NWS values.
T = Trace of Precipitation, MM = Missing Value Source: NWS Daily Summary

Daily Weather History Graph

Daily Weather History Graph

Search for Another Location

Airport:

Trip Planner

Search our weather history database for the weather conditions in past years. The results will help you decide how hot, cold, wet, or windy it might be!

Date:

Astronomy

Jun. 17, 2013 Rise Set
Actual Time 5:09 AM CDT 8:59 PM CDT
Civil Twilight 4:30 AM CDT 9:38 PM CDT
Nautical Twilight 3:37 AM CDT 10:32 PM CDT
Astronomical Twilight 2:20 AM CDT 11:49 PM CDT
Moon 2:20 PM CDT (6/17) 1:06 AM CDT (6/17)
Length of Visible Light 17h 08m
Length of Day
15h 49m
First Quarter, 60% of the Moon is Illuminated
Jun 17
First Quarter
Jun 23
Full
Jun 29
Last Quarter
Jul 8
New
Jul 15
First Quarter

Hourly Weather History & Observations

Time (CDT) Temp. Dew Point Humidity Pressure Visibility Wind Dir Wind Speed Gust Speed Precip Events Conditions
12:53 AM 54.0 °F 53.1 °F 97% 29.87 in 10.0 mi Calm Calm - N/A   Mostly Cloudy
1:53 AM 55.0 °F 53.1 °F 93% 29.86 in 10.0 mi SSW 5.8 mph - N/A   Mostly Cloudy
2:40 AM 55.4 °F 55.4 °F 100% 29.91 in 10.0 mi NE 6.9 mph - N/A   Mostly Cloudy
2:53 AM 55.9 °F 54.0 °F 93% 29.91 in 10.0 mi ENE 9.2 mph - N/A   Overcast
3:01 AM 53.6 °F 53.6 °F 100% 29.91 in 10.0 mi ENE 10.4 mph - N/A   Overcast
3:25 AM 51.8 °F 51.8 °F 100% 29.91 in 10.0 mi NE 8.1 mph - N/A   Overcast
3:53 AM 51.1 °F 50.0 °F 96% 29.91 in 10.0 mi NE 9.2 mph - N/A   Overcast
4:53 AM 50.0 °F 48.0 °F 93% 29.92 in 10.0 mi NNE 6.9 mph - N/A   Overcast
5:18 AM 51.8 °F 48.2 °F 88% 29.93 in 1.8 mi NNE 10.4 mph - N/A   Overcast
5:26 AM 50.0 °F 48.2 °F 94% 29.93 in 0.2 mi NNE 12.7 mph - N/A Fog Fog
5:41 AM 48.2 °F 48.2 °F 100% 29.93 in 1.0 mi NNE 9.2 mph - N/A   Mist
5:44 AM 48.2 °F 48.2 °F 100% 29.94 in 4.0 mi NNE 8.1 mph - N/A   Overcast
5:53 AM 48.9 °F 48.0 °F 97% 29.95 in 10.0 mi NE 8.1 mph - N/A   Overcast
6:53 AM 48.9 °F 46.9 °F 93% 29.95 in 3.0 mi NE 6.9 mph - N/A   Overcast
6:55 AM 48.2 °F 46.4 °F 93% 29.93 in 1.8 mi NE 8.1 mph - N/A   Overcast
7:15 AM 48.2 °F 46.4 °F 93% 29.94 in 3.0 mi NE 5.8 mph - N/A   Overcast
7:39 AM 48.2 °F 46.4 °F 93% 29.94 in 1.8 mi NE 9.2 mph - N/A   Overcast
7:53 AM 48.0 °F 46.9 °F 96% 29.96 in 1.5 mi NNE 8.1 mph - N/A   Overcast
7:56 AM 48.2 °F 46.4 °F 93% 29.94 in 3.0 mi NNE 6.9 mph - N/A   Overcast
8:16 AM 48.2 °F 48.2 °F 100% 29.95 in 1.8 mi NNE 10.4 mph - N/A   Overcast
8:31 AM 48.2 °F 46.4 °F 93% 29.96 in 0.5 mi NNE 9.2 mph - N/A Fog Fog
8:53 AM 48.9 °F 48.0 °F 97% 29.98 in 0.8 mi NNE 10.4 mph - N/A   Mist
9:03 AM 48.2 °F 46.4 °F 93% 29.98 in 1.2 mi NNE 10.4 mph - N/A   Overcast
9:31 AM 48.2 °F 46.4 °F 93% 29.98 in 3.0 mi NNE 9.2 mph - N/A   Overcast
9:53 AM 48.9 °F 46.9 °F 93% 30.00 in 10.0 mi NE 10.4 mph - N/A   Overcast
10:53 AM 50.0 °F 46.9 °F 89% 30.01 in 10.0 mi NNE 6.9 mph - N/A   Overcast
11:29 AM 51.8 °F 48.2 °F 88% 30.02 in 10.0 mi NNE 9.2 mph - N/A   Overcast
11:53 AM 51.1 °F 46.9 °F 86% 30.03 in 10.0 mi NE 11.5 mph - N/A   Overcast
12:25 PM 51.8 °F 46.4 °F 82% 30.03 in 10.0 mi NNE 12.7 mph - N/A   Overcast
12:53 PM 52.0 °F 46.9 °F 83% 30.05 in 10.0 mi NE 13.8 mph - N/A   Overcast
1:53 PM 51.1 °F 46.0 °F 83% 30.06 in 10.0 mi NE 11.5 mph - N/A   Overcast
2:53 PM 53.1 °F 46.9 °F 80% 30.07 in 10.0 mi NE 12.7 mph 18.4 mph N/A   Overcast
3:53 PM 54.0 °F 46.9 °F 77% 30.07 in 10.0 mi NE 11.5 mph - N/A   Overcast
4:39 PM 55.4 °F 46.4 °F 72% 30.06 in 10.0 mi NE 12.7 mph - N/A   Scattered Clouds
4:53 PM 55.0 °F 46.9 °F 74% 30.08 in 10.0 mi NNE 10.4 mph 18.4 mph N/A   Partly Cloudy
5:53 PM 54.0 °F 46.0 °F 75% 30.09 in 10.0 mi ENE 10.4 mph - N/A   Mostly Cloudy
6:53 PM 52.0 °F 44.1 °F 74% 30.10 in 10.0 mi ENE 9.2 mph - N/A   Partly Cloudy
7:53 PM 50.0 °F 44.1 °F 80% 30.09 in 10.0 mi ENE 8.1 mph - N/A   Clear
8:53 PM 46.0 °F 42.1 °F 86% 30.09 in 10.0 mi Calm Calm - N/A   Clear
9:53 PM 41.0 °F 39.9 °F 96% 30.12 in 10.0 mi Calm Calm - N/A   Clear
10:53 PM 39.9 °F 39.0 °F 97% 30.12 in 10.0 mi Calm Calm - N/A   Clear
11:48 PM 37.4 °F 37.4 °F 100% 30.10 in 1.8 mi Calm Calm - N/A   Clear
11:53 PM 37.9 °F 37.0 °F 97% 30.13 in 1.0 mi Calm Calm - N/A   Clear